Wind_Speed
9 6 5 9 12 11 12 12 10 11 10 11 17 20 22 26 27 28 27 27 25 22 20 17 13 10 10 10 11 15 15 16 14 13 16 16 13 13 11 11 18 16 18
10 7 8 10 11 14 14 13 12 11 8 10 15 15 18 22 25 26 26 30 29 27 21 16 15 14 12 13 13 14 16 16 15 15 15 15 14 15 13 10 17 16 17
7 9 9 11 12 12 13 16 14 15 11 9 15 14 16 21 24 26 26 27 30 31 26 22 22 16 14 13 13 15 13 13 11 10 11 9 7 6 6 7 8 14 16
6 8 8 6 6 8 10 10 12 14 12 10 11 15 19 21 22 23 26 26 28 30 31 31 32 27 21 16 13 8 6 9 11 8 8 10 11 11 6 12 7 8 17
6 6 5 3 3 6 9 10 10 9 9 12 12 13 14 14 16 16 18 22 26 30 34 32 35 33 23 19 16 14 12 14 12 13 16 15 13 11 11 11 12 11 14
5 4 1 1 2 3 5 7 7 3 5 7 10 10 10 11 15 16 16 19 23 27 32 34 35 34 30 22 19 19 18 16 12 15 16 14 12 12 11 11 12 17 17
6 5 3 2 1 1 4 7 7 3 1 3 6 10 9 8 12 15 17 15 20 24 24 23 25 26 28 27 25 24 25 25 23 18 16 13 14 14 14 13 10 16 16
5 3 2 4 6 6 8 7 4 2 3 5 4 7 9 8 8 10 12 14 15 13 14 18 21 22 23 25 25 25 20 23 28 29 23 19 18 16 16 16 13 13 12
1 3 5 7 8 7 6 5 6 5 4 7 8 8 9 10 9 9 10 12 18 18 17 15 12 15 14 13 21 19 24 27 19 29 30 23 23 17 14 13 15 12 12
5 4 1 1 1 3 4 5 2 2 3 4 7 8 10 10 11 11 11 12 16 16 16 11 6 11 14 17 20 18 20 20 23 23 23 21 23 26 15 13 11 11 12
1 0 1 4 8 10 10 9 8 7 6 5 1 4 7 9 10 12 13 14 14 16 12 8 4 8 12 11 15 15 16 16 16 16 17 18 19 18 16 11 12 12 11
2 6 9 11 12 13 13 13 12 9 8 8 9 8 6 1 8 13 12 13 14 13 12 7 6 10 12 7 11 11 11 11 12 14 13 13 12 18 16 10 11 9 8
5 7 12 17 20 17 16 16 14 15 16 15 14 12 13 12 9 4 11 12 12 12 10 9 7 11 9 8 6 4 6 6 6 7 10 9 10 11 13 10 11 12 6
15 19 22 24 22 25 23 20 23 27 27 26 23 20 17 14 13 12 9 5 10 16 16 12 10 8 11 9 6 5 1 3 1 4 3 3 5 4 4 7 4 1 6
29 29 28 29 32 31 32 31 34 39 34 34 35 32 29 25 19 14 11 9 6 3 11 15 14 12 11 9 10 7 6 8 8 5 9 9 5 5 2 2 2 2 2
29 30 32 32 29 31 33 33 35 38 36 32 29 28 30 29 27 28 27 22 16 12 10 1 10 14 16 14 15 12 11 15 12 9 7 11 9 9 10 8 5 4 5
26 28 31 32 33 28 26 27 27 26 24 22 23 26 30 24 24 25 26 27 28 28 24 17 12 6 5 11 15 18 19 21 21 20 16 15 14 14 14 15 15 13 11
23 25 26 27 25 24 23 22 21 20 20 21 23 22 22 23 22 20 18 20 21 21 22 22 22 23 20 17 16 15 13 8 9 11 16 23 24 21 20 18 20 20 21
21 21 21 22 21 21 20 20 20 20 18 18 18 18 17 18 17 17 17 17 17 15 13 12 12 12 14 13 14 14 14 13 15 15 16 13 15 21 27 27 24 24 25
16 17 18 18 18 17 17 15 16 17 18 19 19 18 17 15 14 14 15 15 15 15 14 11 9 10 12 9 9 8 12 13 14 14 13 12 14 13 17 25 35 33 29
14 14 14 13 14 13 12 11 12 13 15 18 21 21 20 19 19 20 16 13 11 10 10 9 8 6 10 11 11 11 14 18 18 19 17 14 18 10 15 16 19 33 39
13 12 10 8 8 8 7 7 9 11 15 17 18 22 21 19 18 15 16 19 17 14 15 15 16 18 18 17 16 16 21 24 25 24 20 20 19 18 23 21 19 17 24
7 6 6 6 3 4 5 7 10 12 13 14 17 18 25 23 20 15 15 17 21 16 18 21 22 18 20 20 24 23 26 31 34 30 29 25 25 26 27 26 26 24 21
9 8 6 6 3 0 1 5 10 17 21 18 22 19 29 26 21 20 15 17 18 20 27 26 28 22 24 26 25 27 30 34 37 37 32 32 32 33 35 36 35 32 29
11 10 8 8 8 7 7 8 9 15 21 24 25 28 29 28 24 19 22 22 21 21 36 41 39 39 28 29 29 32 37 38 40 40 41 39 39 41 42 44 46 44 40
17 13 11 11 12 14 15 16 18 21 25 26 27 28 32 36 25 18 32 29 23 19 33 38 47 42 45 42 39 37 44 44 40 44 48 49 52 47 50 51 53 55 52
Wind_Direction
195 156 142 81 72 82 82 86 89 78 68 57 56 52 55 58 67 64 63 65 68 73 80 82 80 83 92 93 97 110 109 105 95 96 95 83 78 68 58 89 67 48 45
161 150 104 81 73 71 76 78 78 75 77 63 58 56 55 64 71 67 65 66 67 65 68 76 81 82 93 112 117 116 114 99 93 104 102 99 86 63 35 64 57 34 36
163 121 102 92 85 74 68 66 69 67 70 77 53 66 71 80 78 74 69 65 62 60 63 68 71 88 98 113 120 124 100 105 76 98 95 98 65 71 88 48 47 37 33
134 124 118 101 75 60 60 63 62 61 68 73 65 79 81 77 82 82 71 64 65 60 61 64 69 73 86 93 106 110 70 52 72 86 94 80 64 51 71 51 67 36 59
126 138 127 108 59 55 62 53 52 56 58 67 83 96 77 69 73 76 70 77 72 66 58 65 62 68 76 79 82 82 71 82 75 93 77 70 56 58 60 45 65 55 62
166 175 159 57 53 54 29 21 26 42 69 78 82 96 82 75 78 75 87 89 83 76 68 74 70 66 58 62 68 73 72 68 72 65 77 60 64 60 42 47 58 66 76
135 146 165 175 253 278 314 332 340 358 114 119 109 101 104 96 88 91 95 95 97 77 70 59 50 59 61 62 66 74 76 73 70 64 57 51 56 69 61 61 74 90 70
137 151 222 270 280 277 290 294 284 275 174 153 149 124 115 127 117 107 103 97 95 80 93 77 72 64 66 67 55 47 60 55 78 71 66 58 58 67 59 68 89 112 123
253 259 272 280 279 281 281 270 247 229 202 172 167 167 153 140 145 135 129 109 104 101 100 63 84 78 77 71 73 60 67 61 62 55 47 62 57 57 71 65 81 99 113
272 276 305 355 43 38 48 49 54 222 214 197 191 183 179 165 157 153 148 139 126 122 93 80 106 99 91 84 86 72 73 90 67 73 71 67 53 44 45 73 81 93 83
270 270 90 90 87 73 64 58 55 57 58 55 55 224 215 203 178 172 162 156 145 133 116 146 181 145 95 110 95 89 84 89 77 80 70 65 64 57 35 67 83 72 74
151 124 102 97 85 75 72 72 71 69 75 77 75 74 63 241 212 193 186 176 169 154 143 204 189 175 119 146 117 113 98 90 82 82 77 65 73 73 58 59 44 40 46
123 111 107 97 93 85 80 74 71 73 80 80 79 83 73 66 71 181 210 214 210 206 195 220 223 196 189 154 155 126 98 99 96 101 89 78 90 82 88 63 17 39 20
91 103 114 104 90 79 77 75 79 81 87 85 85 86 85 83 82 87 99 171 229 237 239 238 229 214 217 214 202 215 241 10 357 197 153 149 152 126 96 90 102 235 1
98 98 98 88 84 79 75 81 91 81 83 82 79 78 75 72 73 70 74 82 94 181 220 224 226 236 245 242 239 247 272 314 298 259 243 214 223 231 264 105 166 136 48
103 96 92 85 87 85 84 80 91 93 91 78 72 70 76 74 71 70 70 68 65 61 60 151 227 236 245 256 265 274 269 291 292 287 282 239 241 264 272 269 252 220 196
104 99 91 86 85 88 87 84 84 81 68 61 61 69 68 69 75 73 68 67 63 65 67 65 62 43 323 280 274 282 288 289 285 278 269 268 268 269 269 268 263 265 269
107 105 97 93 89 88 89 88 83 78 73 69 72 72 72 63 65 61 62 61 62 59 61 64 64 68 67 67 64 54 40 15 340 309 292 274 269 266 264 264 262 260 258
112 107 100 94 88 80 76 73 72 69 64 63 64 73 68 66 61 56 52 46 43 49 48 42 50 59 60 58 53 45 36 25 22 20 11 345 313 284 265 266 264 262 263
114 108 103 97 92 86 82 77 73 68 61 58 52 44 40 42 40 41 40 37 34 29 21 15 12 13 13 6 7 12 10 4 9 357 355 349 337 334 313 281 265 263 261
114 110 98 93 89 82 76 64 60 54 46 41 39 39 36 34 33 26 19 5 2 6 358 354 342 331 323 331 335 325 334 340 339 335 329 344 344 314 332 317 295 268 259
124 125 119 108 87 80 69 45 33 28 27 25 21 24 21 17 20 18 19 15 4 353 340 329 328 319 311 316 323 329 333 332 329 328 317 310 313 332 336 335 329 310 288
131 134 138 145 133 108 77 37 6 5 10 14 10 1 358 357 3 0 8 5 7 353 357 352 327 319 326 310 305 302 314 323 326 327 319 311 313 314 322 327 324 320 317
183 191 193 189 209 190 336 344 346 344 342 339 340 351 359 349 341 339 350 349 350 355 348 345 353 322 315 322 313 312 315 319 321 317 320 318 313 314 315 319 322 319 311
212 216 221 223 219 228 251 276 306 319 328 329 330 332 337 340 333 349 348 336 333 355 357 352 349 344 329 326 328 322 321 318 320 318 311 314 317 315 313 315 316 314 313
217 222 220 225 243 261 268 280 286 294 306 311 315 316 325 328 321 314 333 335 334 329 341 342 341 342 337 334 329 325 330 329 324 323 319 313 312 311 312 309 308 312 312
Height
11012 11012 11011 11010 11008 11008 11007 11006 11005 11004 11003 11002 10999 10996 10994 10993 10991 10990 10988 10987 10986 10985 10983 10983 10982 10982 10982 10982 10982 10983 10984 10985 10985 10985 10985 10984 10982 10981 10980 10978 10977 10976 10974
11012 11012 11011 11010 11009 11009 11007 11006 11006 11005 11004 11003 11002 11000 10998 10996 10994 10993 10991 10990 10989 10987 10986 10985 10984 10984 10984 10983 10984 10985 10986 10986 10986 10986 10985 10984 10984 10984 10983 10982 10980 10978 10977
11012 11012 11011 11010 11010 11010 11008 11007 11006 11005 11005 11005 11005 11003 11001 10999 10997 10996 10994 10993 10992 10990 10989 10988 10985 10984 10984 10984 10986 10987 10987 10987 10988 10987 10987 10985 10986 10984 10985 10984 10983 10981 10979
11013 11013 11012 11011 11010 11010 11008 11007 11007 11006 11007 11007 11007 11005 11004 11003 11001 10999 10997 10996 10995 10993 10992 10991 10988 10988 10987 10987 10988 10989 10988 10987 10988 10988 10987 10986 10987 10985 10986 10986 10985 10983 10981
11013 11013 11012 11012 11011 11010 11009 11008 11007 11007 11008 11008 11008 11008 11007 11006 11004 11003 11001 11000 10999 10997 10995 10993 10992 10991 10991 10990 10990 10989 10989 10990 10989 10989 10990 10989 10988 10987 10988 10987 10986 10986 10984
11013 11013 11013 11012 11011 11009 11009 11008 11007 11007 11008 11008 11008 11009 11009 11008 11007 11005 11004 11003 11002 11000 10999 10997 10995 10995 10995 10993 10991 10990 10991 10992 10992 10992 10992 10992 10991 10989 10988 10987 10987 10987 10988
11013 11014 11013 11012 11011 11010 11009 11007 11006 11006 11006 11007 11007 11008 11008 11008 11008 11008 11007 11006 11005 11004 11004 11003 11000 10999 10998 10998 10996 10995 10994 10994 10994 10994 10994 10993 10992 10991 10990 10989 10990 10990 10989
11013 11012 11012 11011 11010 11009 11007 11006 11005 11004 11004 11005 11005 11006 11007 11007 11008 11009 11008 11007 11008 11007 11007 11006 11005 11004 11002 11000 11000 11001 10999 10998 10997 10997 10997 10997 10996 10994 10993 10993 10991 10991 10991
11012 11011 11011 11010 11008 11006 11004 11003 11002 11002 11003 11003 11004 11005 11006 11007 11007 11008 11008 11007 11008 11008 11009 11009 11008 11007 11006 11006 11004 11004 11003 11004 11002 11002 11002 11001 11000 10999 10996 10995 10994 10994 10993
11012 11010 11008 11008 11007 11005 11003 11002 11001 11001 11001 11002 11003 11003 11004 11006 11007 11007 11008 11008 11008 11009 11011 11012 11009 11008 11009 11008 11008 11007 11006 11007 11006 11005 11005 11004 11004 11003 11000 10998 10998 10996 10995
11012 11010 11009 11008 11007 11006 11005 11004 11003 11002 11002 11002 11002 11003 11004 11005 11007 11007 11007 11008 11009 11010 11012 11012 11010 11011 11010 11009 11009 11008 11008 11008 11008 11007 11007 11006 11004 11004 11003 11001 11000 10999 10997
11011 11009 11009 11009 11008 11008 11006 11005 11004 11003 11002 11002 11003 11004 11004 11005 11006 11007 11008 11009 11009 11010 11011 11009 11010 11011 11009 11010 11010 11010 11010 11009 11009 11009 11008 11008 11006 11006 11005 11005 11004 11002 11001
11012 11010 11011 11012 11010 11009 11009 11007 11005 11003 11003 11003 11004 11005 11005 11005 11006 11007 11009 11011 11011 11012 11011 11010 11010 11011 11012 11012 11012 11012 11012 11011 11011 11011 11009 11009 11008 11006 11005 11006 11005 11003 11003
11013 11011 11012 11014 11013 11013 11012 11010 11008 11007 11006 11005 11005 11006 11007 11007 11008 11008 11008 11009 11010 11010 11010 11011 11011 11011 11012 11012 11012 11012 11013 11013 11014 11011 11011 11010 11008 11005 11005 11003 11004 11005 11003
11017 11016 11016 11017 11017 11017 11016 11015 11013 11013 11013 11012 11012 11012 11012 11012 11012 11011 11011 11010 11009 11007 11006 11007 11010 11011 11011 11012 11013 11013 11013 11013 11013 11012 11011 11010 11009 11007 11005 11004 11002 11001 11001
11022 11021 11021 11021 11021 11021 11021 11020 11019 11019 11020 11019 11018 11018 11017 11016 11016 11016 11014 11012 11010 11009 11008 11007 11008 11009 11010 11011 11010 11011 11011 11010 11010 11010 11009 11009 11007 11005 11005 11004 11002 11001 11000
11026 11026 11025 11025 11025 11025 11025 11025 11025 11025 11024 11023 11022 11021 11021 11020 11020 11019 11018 11016 11015 11013 11011 11009 11010 11010 11010 11011 11011 11010 11009 11008 11006 11006 11004 11004 11003 11003 11001 11001 11001 10999 10998
11029 11029 11029 11028 11029 11029 11029 11029 11028 11027 11027 11025 11025 11024 11024 11022 11022 11021 11020 11018 11017 11016 11016 11015 11014 11013 11013 11011 11010 11008 11006 11005 11003 11001 11000 11000 10999 10999 10998 10997 10997 10996 10995
11032 11032 11031 11031 11031 11031 11031 11031 11030 11029 11028 11027 11027 11026 11026 11025 11024 11023 11021 11020 11019 11019 11018 11018 11016 11015 11014 11013 11010 11009 11007 11005 11002 10999 10997 10996 10994 10993 10993 10993 10992 10992 10991
11033 11032 11032 11031 11031 11032 11032 11032 11031 11030 11029 11029 11028 11028 11027 11027 11026 11023 11021 11020 11019 11019 11019 11019 11018 11016 11014 11012 11010 11008 11006 11003 11002 11000 10998 10996 10993 10991 10988 10986 10985 10985 10985
11034 11033 11033 11033 11032 11032 11031 11031 11032 11032 11031 11029 11029 11029 11028 11028 11026 11024 11023 11022 11020 11018 11017 11016 11014 11013 11011 11009 11007 11005 11003 11001 11000 10998 10995 10993 10991 10988 10985 10982 10979 10977 10978
11032 11033 11034 11033 11032 11032 11032 11031 11031 11031 11030 11030 11029 11029 11028 11027 11026 11024 11023 11021 11019 11017 11015 11013 11012 11010 11008 11006 11003 11001 10998 10996 10995 10993 10991 10988 10986 10983 10980 10977 10975 10972 10971
11032 11033 11033 11032 11032 11032 11031 11030 11029 11030 11030 11029 11029 11028 11028 11027 11025 11023 11021 11018 11016 11014 11012 11010 11007 11006 11004 11002 10999 10996 10994 10992 10989 10987 10984 10981 10978 10976 10974 10971 10969 10967 10965
11028 11029 11030 11030 11030 11030 11029 11028 11027 11027 11027 11027 11026 11025 11024 11023 11022 11020 11017 11015 11012 11010 11008 11005 11004 11001 11000 10997 10994 10992 10989 10986 10982 10979 10978 10972 10970 10968 10965 10962 10960 10959 10958
11024 11025 11026 11027 11027 11027 11027 11026 11026 11025 11024 11023 11022 11020 11020 11019 11017 11015 11012 11010 11007 11003 11001 11000 10998 10997 10994 10992 10989 10987 10983 10978 10973 10969 10967 10964 10962 10958 10956 10953 10950 10948 10946
11020 11021 11023 11024 11025 11024 11024 11024 11023 11023 11022 11020 11019 11017 11014 11012 11011 11008 11006 11003 11000 10997 10994 10993 10991 10990 10989 10985 10982 10979 10974 10970 10966 10960 10954 10952 10947 10947 10945 10942 10940 10936 10934